Location: Austin
(30.3000°N, 97.7500°W)
Time: 04:05:25
(UTC-06:00)

Okean 1-7 Rocket - Pass Details

Date: 20 November 2023
Orbit: 613 x 648 km, 82.5° (Epoch: 04 December)

Event Time Altitude Azimuth Distance (km) Brightness Sun altitude
Rises 17:51:41 0° 0° (N) 2,883 6.8 -4.7°
Reaches altitude 10° 17:53:58 10° 6° (N) 1,977 5.9 -5.2°
Maximum altitude 17:58:13 50° 82° (E) 789 3.7 -6.1°
Drops below altitude 10° 18:02:28 10° 158° (SSE) 1,978 6.1 -6.9°
Sets 18:04:45 0° 164° (SSE) 2,886 7.0 -7.4°
